Weather History for Biloxi, MS

Change the Weather History Date:

Saturday, December 15, 2012

  Actual Average Record
Temperature  
Mean Temperature 61 °F -  
Max Temperature 70 °F 63 °F 77 °F (2007)
Min Temperature 52 °F 45 °F 26 °F (1958)
Degree Days  
Heating Degree Days 4    
Growing Degree Days 11 (Base 50)    
Moisture  
Dew Point 58 °F    
Average Humidity 87    
Maximum Humidity 95    
Minimum Humidity 73    
Precipitation  
Precipitation 0.00 in - - ()
Sea Level Pressure  
Sea Level Pressure 30.06 in    
Wind  
Wind Speed 7 mph (SE)    
Max Wind Speed 9 mph    
Max Gust Speed -    
Visibility 10 miles    
Events      
Averages and records for this station are not official NWS values.
T = Trace of Precipitation, MM = Missing Value Source: NWS Daily Summary

Daily Weather History Graph

Daily Weather History Graph

Search for Another Location

Airport:

Trip Planner

Search our weather history database for the weather conditions in past years. The results will help you decide how hot, cold, wet, or windy it might be!

Date:

Astronomy

Dec. 15, 2012 Rise Set
Actual Time 6:45 AM CST 4:56 PM CST
Civil Twilight 6:18 AM CST 5:23 PM CST
Nautical Twilight 5:48 AM CST 5:53 PM CST
Astronomical Twilight 5:19 AM CST 6:22 PM CST
Moon 8:45 AM CST (12/15) 7:52 PM CST (12/15)
Length of Visible Light 11h 04m
Length of Day
10h 11m
Waxing Crescent, 8% of the Moon is Illuminated
Dec 15
Waxing Crescent
Dec 19
First Quarter
Dec 28
Full
Jan 4
Last Quarter
Jan 11
New

Hourly Weather History & Observations

Time (CST) Temp. Dew Point Humidity Pressure Visibility Wind Dir Wind Speed Gust Speed Precip Events Conditions
12:55 AM 52.2 °F 50.2 °F 93% 30.12 in 10.0 mi East 8.1 mph - N/A   Overcast
1:55 AM 52.5 °F 50.0 °F 91% 30.11 in 10.0 mi East 6.9 mph - N/A   Overcast
2:21 AM 53.6 °F 50.0 °F 88% 30.11 in 10.0 mi East 4.6 mph - N/A   Overcast
2:55 AM 54.1 °F 51.3 °F 90% 30.10 in 10.0 mi East 5.8 mph - N/A   Overcast
3:55 AM 53.1 °F 50.5 °F 91% 30.10 in 10.0 mi ENE 4.6 mph - N/A   Mostly Cloudy
4:55 AM 54.3 °F 51.3 °F 89% 30.08 in 10.0 mi East 4.6 mph - N/A   Overcast
5:55 AM 54.3 °F 51.4 °F 90% 30.09 in 10.0 mi East 8.1 mph - N/A   Mostly Cloudy
6:55 AM 54.3 °F 51.8 °F 91% 30.10 in 10.0 mi ESE 4.6 mph - N/A   Mostly Cloudy
7:55 AM 55.6 °F 52.3 °F 89% 30.11 in 10.0 mi East 8.1 mph - N/A   Mostly Cloudy
8:55 AM 58.5 °F 53.8 °F 84% 30.12 in 10.0 mi East 5.8 mph - N/A   Mostly Cloudy
9:55 AM 64.2 °F 56.3 °F 75% 30.12 in 10.0 mi East 6.9 mph - N/A   Scattered Clouds
10:55 AM 64.9 °F 57.7 °F 77% 30.12 in 10.0 mi East 4.6 mph - N/A   Overcast
11:55 AM 67.8 °F 59.5 °F 75% 30.08 in 10.0 mi ESE 6.9 mph - N/A   Overcast
12:55 PM 67.8 °F 60.4 °F 77% 30.06 in 10.0 mi SSE 6.9 mph - N/A   Overcast
1:55 PM 70.0 °F 60.8 °F 73% 30.04 in 10.0 mi SE 8.1 mph - N/A   Overcast
2:55 PM 67.6 °F 59.9 °F 76% 30.03 in 10.0 mi SE 6.9 mph - N/A   Overcast
3:55 PM 67.5 °F 60.4 °F 78% 30.02 in 10.0 mi SE 5.8 mph - N/A   Partly Cloudy
4:55 PM 66.2 °F 61.3 °F 84% 30.02 in 10.0 mi SE 4.6 mph - N/A   Clear
5:55 PM 64.2 °F 61.5 °F 91% 30.02 in 10.0 mi SE 4.6 mph - N/A   Clear
6:55 PM 65.8 °F 63.0 °F 90% 30.02 in 10.0 mi SSE 6.9 mph - N/A   Partly Cloudy
7:43 PM 66.2 °F 62.6 °F 88% 30.04 in 10.0 mi SSE 5.8 mph - N/A   Mostly Cloudy
7:55 PM 65.7 °F 63.3 °F 92% 30.04 in 10.0 mi SSE 5.8 mph - N/A   Mostly Cloudy
8:40 PM 66.2 °F 62.6 °F 88% 30.03 in 10.0 mi SSE 5.8 mph - N/A   Scattered Clouds
8:55 PM 65.8 °F 63.0 °F 90% 30.02 in 10.0 mi SSE 6.9 mph - N/A   Partly Cloudy
9:17 PM 66.2 °F 62.6 °F 88% 30.02 in 10.0 mi SSE 8.1 mph - N/A   Mostly Cloudy
9:21 PM 66.2 °F 62.6 °F 88% 30.02 in 10.0 mi South 6.9 mph - N/A   Mostly Cloudy
9:30 PM 66.2 °F 62.6 °F 88% 30.02 in 10.0 mi South 8.1 mph - N/A   Mostly Cloudy
9:32 PM 66.2 °F 62.6 °F 88% 30.02 in 10.0 mi South 8.1 mph - N/A   Mostly Cloudy
9:38 PM 64.4 °F 62.6 °F 94% 30.01 in 10.0 mi South 8.1 mph - N/A   Mostly Cloudy
9:55 PM 64.8 °F 63.1 °F 94% 30.02 in 10.0 mi South 9.2 mph - N/A   Partly Cloudy
10:55 PM 65.3 °F 63.9 °F 95% 30.02 in 10.0 mi SSE 6.9 mph - N/A   Mostly Cloudy
11:55 PM 65.3 °F 63.0 °F 92% 30.00 in 10.0 mi South 6.9 mph - N/A   Overcast